Theta_e
298 298 298 298 298 298 298 298 298 298 298 299 300 300 300 300 300 300 301 301 301 301 301 300 301 301 301 302 302 301 305 307 306 306 304 303 303 303 305 304 302 300 299 302 305 304 307 310 308 307 307 306 307 310 310 312 316 318 324 328 326 324 324 326 329 329 326 323 323 323 322 320 318 319 319 319 317 314 314 313 313 316 318 317 316 315 315 315
298 298 298 298 298 298 297 298 298 298 299 300 300 300 300 300 300 300 301 301 301 301 301 301 302 302 302 303 303 302 305 308 307 306 304 303 303 304 305 305 303 300 299 303 305 303 305 308 308 308 309 306 307 310 309 311 316 318 323 325 324 325 326 328 327 325 324 323 323 322 322 321 321 320 320 317 313 313 312 312 314 315 315 315 315 315 315 314
297 297 297 297 297 297 297 298 298 299 300 300 300 301 301 301 300 301 301 301 300 301 302 303 303 303 303 303 303 301 304 308 307 305 304 303 304 305 305 305 304 301 299 304 305 303 303 304 306 308 309 308 308 310 309 311 315 317 319 319 322 327 328 327 326 325 324 323 323 322 322 322 321 320 318 314 310 309 307 307 310 311 312 314 314 314 316 317
297 297 297 297 297 297 297 298 298 300 300 300 300 301 301 301 301 301 301 301 301 302 303 304 303 303 303 304 304 303 305 309 306 304 303 303 305 305 305 305 305 302 301 304 304 303 303 303 306 308 309 309 307 310 310 310 314 316 316 317 323 328 328 326 326 325 324 323 322 321 319 318 318 318 317 315 313 309 305 304 305 307 310 312 314 314 316 319
297 297 297 297 297 297 297 298 299 300 300 300 300 300 301 301 301 301 301 301 302 303 304 304 303 303 303 304 306 306 308 308 304 302 303 304 305 305 305 305 305 303 300 303 304 304 304 304 306 308 309 309 307 310 310 311 313 314 318 322 326 326 325 324 324 324 322 321 319 317 314 313 314 313 312 313 311 306 304 304 304 307 309 310 312 314 317 320
296 297 297 297 297 297 297 298 299 300 300 300 300 300 300 300 301 301 301 301 302 304 304 303 303 303 303 304 306 307 308 306 302 302 303 305 305 306 305 305 304 302 301 304 305 305 304 305 307 308 309 309 308 308 310 313 311 315 321 324 325 324 322 321 321 321 320 318 316 314 313 312 310 307 307 307 304 303 303 304 305 307 308 309 310 314 318 321
297 297 297 297 297 297 297 298 299 299 300 300 299 299 299 299 300 301 301 301 302 303 304 303 303 303 303 305 307 307 305 303 301 301 303 305 305 306 305 304 303 301 303 306 305 305 306 307 308 308 308 308 309 308 311 313 311 318 323 322 322 322 320 319 319 318 317 315 314 313 313 311 309 307 306 304 302 302 303 304 306 307 309 310 310 313 318 320
296 296 297 297 297 297 297 298 299 299 299 299 299 299 299 299 299 300 301 301 301 303 304 303 303 303 303 305 308 308 303 301 301 301 303 305 305 305 305 305 304 302 304 305 304 305 306 307 308 309 307 308 309 308 311 313 315 320 322 321 321 320 319 318 316 315 314 313 313 313 311 309 308 308 305 303 303 303 304 304 304 308 310 311 313 314 315 317
296 296 296 297 297 297 297 297 299 299 299 299 299 299 299 299 299 299 300 302 301 302 303 303 303 303 303 305 306 307 303 300 301 301 303 305 305 306 306 304 303 304 305 305 304 304 306 307 309 310 309 310 308 309 312 314 318 321 320 319 319 318 317 316 315 314 313 313 314 312 310 309 310 311 306 303 303 303 304 303 303 307 309 310 314 315 311 313
297 296 297 297 297 297 297 298 298 299 299 299 300 299 299 299 298 299 300 301 301 302 302 303 303 302 304 305 305 305 303 300 301 301 303 305 305 306 306 303 302 305 306 305 305 306 308 310 310 310 310 310 309 311 313 314 318 319 318 318 317 317 316 316 315 314 314 313 314 312 310 310 311 312 307 304 304 304 304 304 303 305 307 307 309 311 310 312
297 297 297 297 297 297 297 298 298 298 298 299 299 299 299 299 298 299 301 301 301 302 302 302 303 302 305 305 303 303 301 301 302 302 304 305 305 306 306 303 302 305 306 305 305 306 308 310 310 310 309 310 311 313 314 316 318 317 317 317 317 317 317 317 316 315 314 312 312 311 310 309 308 308 306 304 304 304 305 304 304 304 306 306 305 306 307 310
297 297 297 297 298 297 297 298 298 298 298 299 299 299 299 298 299 300 301 301 301 302 302 302 303 303 305 305 302 302 301 302 302 302 304 305 306 306 306 305 303 304 305 306 306 304 306 308 309 310 310 310 313 315 316 317 318 317 317 317 316 316 316 316 316 315 314 313 313 315 316 310 306 305 304 304 304 304 305 304 304 303 303 305 304 305 308 313
297 297 298 298 298 297 298 298 298 298 298 299 299 299 299 299 300 301 301 301 301 302 302 303 303 304 306 305 301 302 302 302 302 303 304 305 306 307 307 306 305 304 304 306 307 304 304 307 309 312 312 312 314 316 317 317 317 317 316 316 316 316 315 314 315 316 314 315 315 318 322 312 305 305 304 304 304 304 305 304 304 303 303 303 302 304 308 314
297 298 298 299 298 298 298 298 298 298 298 299 299 299 299 300 300 301 301 301 301 301 302 303 302 303 306 304 302 302 302 302 302 303 305 306 307 307 307 306 306 305 304 305 305 304 305 306 308 311 311 312 314 315 316 316 316 316 316 317 317 318 316 312 314 317 315 316 316 318 319 310 305 305 304 303 303 304 304 304 303 303 304 304 304 304 306 310
297 298 298 299 299 298 298 298 298 298 299 299 299 299 299 300 300 300 300 300 300 300 301 302 302 303 305 304 303 302 302 302 302 302 304 306 307 307 307 306 306 304 302 304 306 306 307 307 309 311 312 313 314 315 315 315 316 316 318 320 319 318 315 311 312 315 316 316 315 317 316 309 305 304 304 304 303 304 304 303 303 303 303 304 304 306 306 309
298 298 298 298 299 299 298 298 298 298 299 299 299 299 299 300 300 301 301 301 301 300 301 302 301 303 305 303 302 302 302 302 302 302 304 305 306 307 306 305 305 304 303 306 307 308 308 309 311 312 312 313 313 314 315 316 317 316 318 321 318 316 314 313 312 312 315 316 315 315 313 309 306 304 304 303 303 303 304 303 303 303 303 303 304 304 304 306
298 298 298 298 299 299 298 298 298 299 299 299 299 299 299 299 300 301 302 302 302 301 301 302 301 303 304 302 302 301 302 302 302 303 304 305 306 306 306 305 305 305 306 308 308 309 309 310 312 311 312 313 313 314 315 317 318 317 318 319 317 315 315 315 314 312 314 315 312 311 310 308 305 304 303 303 303 303 303 304 303 303 303 304 304 303 303 303
298 298 299 299 299 299 299 299 298 299 299 299 299 299 299 299 299 300 302 302 303 303 303 302 302 304 303 301 301 301 302 303 303 303 305 305 305 305 306 305 305 306 307 308 309 309 310 310 310 311 312 313 313 314 315 316 317 317 317 318 316 316 316 315 315 314 314 312 310 309 307 305 303 303 303 303 303 303 304 304 303 303 303 304 304 303 303 302
299 299 299 299 299 299 299 299 299 299 299 299 299 299 299 298 299 300 300 301 302 303 302 301 302 302 301 301 301 301 302 303 303 303 304 304 304 305 305 305 306 307 307 307 308 309 308 310 310 312 313 312 313 314 314 316 316 316 317 317 317 317 316 315 315 314 313 312 311 309 306 304 303 303 303 303 303 303 304 303 303 303 303 304 304 303 303 302
299 299 299 299 299 299 299 299 299 299 299 299 299 299 300 301 302 302 299 299 300 301 301 301 301 301 300 301 301 302 303 304 304 304 304 304 305 306 305 306 307 307 307 307 308 308 308 310 310 311 310 309 310 309 310 314 316 316 317 317 316 315 314 314 313 313 313 312 310 308 306 305 303 303 303 303 303 303 304 304 305 304 304 304 304 304 304 303
299 299 299 299 299 299 299 299 300 299 299 299 298 300 303 304 305 304 300 299 299 300 301 301 301 301 300 300 301 303 303 304 304 304 304 304 306 306 305 306 306 306 307 307 308 308 308 309 308 308 307 306 307 307 309 315 318 316 316 315 313 312 312 312 312 311 311 312 310 308 306 305 303 303 303 304 304 304 304 305 306 305 305 304 304 304 304 303
299 299 299 299 299 299 299 299 300 299 299 299 298 302 305 303 303 303 302 302 299 299 301 301 301 301 300 301 302 303 303 304 304 304 304 304 306 306 305 306 306 307 307 307 308 309 309 308 306 306 305 305 309 311 314 318 317 315 314 313 311 311 311 311 311 311 310 311 310 308 306 305 303 303 303 304 305 306 306 305 306 306 305 305 304 304 303 303
299 299 299 299 299 299 299 299 300 299 299 299 299 301 303 301 300 301 302 303 300 299 300 301 301 300 300 301 302 304 304 304 304 304 303 305 306 305 305 306 307 307 307 307 308 309 309 307 305 304 305 308 312 314 317 317 314 314 312 311 311 311 312 312 311 311 310 310 309 309 307 305 304 304 304 305 305 305 305 304 304 304 304 305 304 304 303 302
300 300 300 300 300 300 300 300 300 299 299 299 299 299 300 300 300 301 302 303 303 301 300 300 301 300 301 301 301 303 304 304 304 303 303 304 305 306 306 306 307 307 307 307 308 308 308 306 305 306 308 312 315 315 315 314 313 313 313 312 312 313 312 311 310 310 310 310 310 311 312 310 307 307 306 305 305 304 303 303 303 303 303 303 303 302 302 302
300 300 300 300 300 300 300 300 299 300 300 299 300 299 299 300 300 301 303 304 303 302 301 301 301 301 301 302 302 303 304 304 303 304 304 304 305 306 307 306 307 308 308 308 308 307 307 306 307 309 310 312 314 313 314 314 313 313 313 313 313 312 311 311 312 313 313 313 313 313 319 318 311 309 309 307 305 304 304 304 304 304 304 304 304 303 304 304
301 300 300 300 301 300 302 302 299 300 301 299 300 300 300 301 301 301 303 305 304 302 302 302 301 301 301 302 303 303 304 304 303 304 305 305 306 306 306 306 307 307 308 308 307 306 306 306 308 310 310 311 313 313 312 312 313 314 314 314 313 312 312 313 315 316 316 315 312 311 317 320 314 311 312 309 307 307 307 306 305 305 305 304 304 304 305 305
301 300 300 301 300 301 304 303 299 300 302 300 300 301 301 301 302 301 304 307 304 302 302 302 301 301 301 302 303 303 304 304 304 304 305 306 306 307 307 307 307 308 307 307 307 306 305 306 308 309 310 311 312 312 310 310 313 314 313 313 314 313 315 317 317 317 315 315 313 311 314 319 318 315 313 311 310 310 309 308 307 306 306 305 304 304 304 303
301 300 300 300 301 301 301 301 299 300 301 300 300 301 302 302 301 303 307 306 303 301 301 301 301 301 301 302 303 303 304 303 304 305 305 306 306 307 307 307 307 307 306 307 307 305 304 305 306 308 309 309 308 308 308 310 312 313 313 314 314 315 317 317 316 316 315 316 317 315 313 317 320 317 314 313 312 312 312 310 309 307 307 306 305 304 304 304
301 301 300 300 301 301 300 300 300 300 300 300 301 302 302 301 301 305 308 305 302 301 301 302 301 300 301 302 303 303 303 303 304 305 305 305 306 306 307 307 306 306 306 306 306 305 304 304 304 305 308 308 308 308 311 313 313 312 313 315 316 316 317 317 316 317 318 318 318 315 312 315 319 318 315 315 314 313 313 312 311 309 309 308 306 304 305 305
301 301 301 301 302 302 301 300 300 300 300 301 302 302 301 301 303 306 305 302 301 301 301 302 301 300 301 302 302 302 303 303 303 304 304 304 305 305 306 307 306 306 306 306 306 305 305 305 305 305 305 306 308 310 312 312 311 312 314 316 317 317 317 318 318 318 319 319 315 312 310 313 317 319 315 314 314 314 314 314 313 311 311 310 308 306 306 305
301 301 301 302 302 302 302 301 300 300 300 301 301 300 302 304 305 304 301 300 303 302 300 301 301 301 302 302 302 302 302 303 302 304 304 303 303 302 303 306 306 307 308 307 307 306 305 305 305 305 304 303 307 310 310 311 312 313 315 315 317 318 318 318 318 318 320 318 312 310 310 312 316 319 317 315 315 315 315 316 315 313 313 311 308 307 306 306
302 301 301 302 302 302 301 300 300 300 300 301 300 300 304 305 303 301 300 301 303 301 300 301 301 301 302 302 302 302 302 303 302 303 304 303 302 301 301 303 303 307 309 308 308 307 306 305 304 305 305 302 307 312 311 313 315 314 315 316 317 318 318 319 319 319 318 314 309 308 310 314 316 315 315 315 314 314 313 312 311 312 313 311 308 307 306 306
302 302 301 302 303 302 302 301 301 301 301 301 300 302 305 304 301 300 301 301 300 299 299 300 301 301 302 303 302 302 302 303 302 303 303 303 303 302 302 301 301 306 310 309 309 309 309 307 303 304 306 303 306 311 312 314 315 314 315 316 317 317 317 317 318 317 315 311 309 309 312 317 315 310 310 310 309 309 308 308 309 309 309 309 308 307 306 305
302 302 302 302 302 302 302 301 301 301 302 302 304 307 306 302 300 300 301 301 299 299 300 301 301 302 302 302 301 302 303 303 302 302 302 302 302 302 302 300 301 303 306 308 308 307 308 308 304 303 305 302 303 306 308 309 312 313 313 314 316 316 316 316 317 316 315 312 310 310 312 317 315 310 307 306 306 306 306 307 308 308 308 308 307 307 306 304
302 302 302 302 303 303 303 303 303 303 304 304 304 306 304 301 301 301 301 300 300 300 300 300 301 302 302 302 302 302 302 303 303 302 301 300 300 301 300 300 300 300 303 307 308 305 305 305 303 302 302 300 302 303 303 307 313 312 311 314 315 313 313 314 313 313 314 314 313 312 314 314 311 308 306 305 305 305 305 305 305 306 306 306 306 306 305 304
302 302 302 302 302 303 303 304 304 304 306 306 305 304 301 300 300 300 300 300 300 299 299 301 301 302 302 302 302 302 302 302 304 303 301 300 300 300 300 300 300 300 301 304 306 306 305 303 302 303 302 300 301 302 303 306 311 313 311 311 310 307 310 314 312 311 313 315 313 312 314 312 308 307 306 305 305 304 304 304 304 305 305 305 305 305 305 304
303 303 303 302 302 303 303 304 304 305 304 305 306 303 299 298 299 299 299 299 299 298 299 302 301 301 302 302 302 301 302 302 304 304 302 302 301 300 299 300 300 300 298 300 304 306 305 303 302 303 304 302 301 302 304 304 307 313 312 308 307 306 308 312 313 313 314 315 312 310 312 312 310 309 306 305 306 305 304 304 304 305 306 306 306 305 305 305
302 304 304 302 302 303 303 303 304 306 304 303 304 301 298 298 298 298 297 297 297 299 300 301 301 301 301 301 301 301 301 303 304 303 302 302 302 299 298 299 300 299 298 299 303 304 305 305 304 303 304 304 302 304 307 305 304 309 308 305 307 310 312 312 312 313 314 314 312 310 310 311 311 309 305 305 306 305 305 305 304 305 305 305 306 306 306 305
303 305 305 302 302 303 304 304 304 305 306 305 304 302 299 299 298 296 295 296 296 298 300 300 300 301 299 299 300 300 301 302 301 302 303 301 301 300 298 297 299 299 297 299 301 301 305 308 306 303 305 305 304 304 307 307 304 305 306 304 306 308 309 309 308 310 312 313 312 310 309 310 308 305 304 304 305 305 306 306 305 304 304 304 304 305 306 306
303 307 306 303 303 303 303 304 304 304 304 304 303 299 297 299 299 297 295 296 296 298 300 301 300 300 300 299 299 299 300 301 300 301 301 300 300 300 297 297 298 297 297 299 300 300 306 311 306 304 305 306 304 302 301 302 304 306 307 305 305 304 304 305 305 304 307 311 313 312 310 307 302 301 303 305 304 305 305 305 305 304 303 304 303 303 302 303
305 308 306 303 304 305 305 306 305 303 302 301 300 298 296 298 299 298 296 295 296 297 298 300 300 300 299 299 299 298 299 300 299 299 299 298 299 299 297 297 297 296 298 300 301 300 305 309 307 305 305 304 302 299 297 299 300 301 303 302 302 302 303 306 305 302 303 307 309 310 308 304 301 302 304 304 304 304 303 303 304 303 303 303 302 301 300 299
307 309 306 302 304 305 306 307 303 301 302 300 299 299 298 298 298 297 297 296 297 298 297 298 300 300 299 299 298 298 299 299 299 299 299 298 298 297 296 296 296 297 299 301 301 299 300 306 306 303 302 301 300 297 295 296 297 299 301 301 301 302 304 307 307 304 304 303 303 306 307 305 303 302 303 304 303 303 302 302 303 302 302 302 301 301 300 298
305 306 304 303 304 304 307 308 302 299 298 296 296 297 297 298 298 297 296 296 297 298 298 297 298 299 299 298 298 299 299 299 299 299 299 298 298 296 296 296 296 298 300 302 302 299 300 304 305 302 300 301 299 296 294 294 296 301 302 300 300 301 301 303 304 305 306 305 306 308 306 306 305 301 301 303 301 301 301 301 301 301 301 301 300 299 299 298
303 304 304 304 305 306 310 311 305 300 297 296 297 296 296 297 298 298 297 296 296 298 298 299 298 299 298 297 298 299 299 301 301 300 299 300 299 297 296 296 297 298 300 301 300 300 301 303 304 304 304 303 302 302 300 298 299 302 301 298 299 299 299 300 302 304 306 305 306 308 307 306 305 301 301 301 299 300 301 300 300 300 299 299 299 299 299 298
304 306 304 303 304 306 309 307 304 301 299 300 300 298 298 297 297 298 298 296 295 296 298 298 297 297 297 297 298 299 299 300 301 300 300 300 300 298 296 296 296 297 298 296 296 298 301 301 302 305 306 306 306 305 305 303 301 300 300 299 300 300 301 302 303 306 307 303 303 306 307 304 303 302 302 301 300 300 300 300 300 299 299 300 299 299 299 298
307 310 308 305 303 303 303 301 301 301 301 302 302 300 299 300 298 297 298 298 297 295 296 297 295 297 299 299 299 299 299 300 300 300 300 300 300 298 296 296 296 296 297 296 295 297 300 299 299 303 305 305 304 301 299 301 301 300 300 300 300 300 299 300 303 306 307 305 305 305 304 303 302 302 303 302 301 301 300 300 300 299 300 300 299 299 299 299
307 310 308 307 306 304 302 301 300 301 302 303 303 301 300 302 300 298 298 299 298 296 296 296 296 299 301 302 302 300 300 300 300 300 300 300 299 298 297 296 296 296 297 296 295 298 304 303 298 299 301 297 296 296 296 298 300 299 300 300 300 300 299 299 303 304 302 306 309 304 302 305 303 302 303 303 303 302 301 300 300 300 300 300 299 299 299 299
308 307 302 304 309 308 306 305 301 301 302 302 302 301 302 302 302 301 299 298 297 297 298 299 298 298 298 300 303 303 302 302 301 300 300 300 300 300 300 298 297 297 297 296 295 296 305 306 298 298 301 296 294 296 296 297 299 298 299 299 299 300 299 299 301 301 300 304 307 302 300 304 304 301 301 302 302 301 300 300 300 300 300 300 300 300 299 299
305 304 300 302 306 304 304 304 301 301 303 302 301 302 302 303 303 301 299 298 297 297 299 300 299 296 296 297 300 303 303 304 304 301 299 301 301 301 301 300 298 298 297 298 295 294 303 306 296 296 302 297 294 297 296 296 299 300 300 299 299 300 299 298 300 300 298 300 301 299 299 301 301 300 300 301 301 300 300 300 300 300 300 300 300 300 299 299
303 305 302 301 302 299 299 301 302 304 304 303 303 303 301 303 304 300 298 299 301 299 298 299 299 297 297 298 299 301 300 300 303 301 298 301 303 301 300 299 299 299 298 299 297 296 304 306 294 295 305 301 296 296 295 295 299 303 303 301 299 299 299 299 299 299 299 301 300 299 300 303 301 300 300 301 300 300 301 301 301 301 301 301 300 300 299 299
304 305 303 304 304 301 300 301 301 305 307 305 305 304 301 303 303 300 299 298 299 301 300 299 299 297 297 299 299 298 297 296 298 297 296 298 300 299 298 298 297 298 299 298 298 299 302 301 294 298 309 307 298 296 297 298 300 304 307 306 302 300 301 302 301 300 302 303 302 301 304 307 304 300 301 301 301 301 302 301 301 301 301 300 300 300 299 299
302 303 303 306 307 302 300 301 301 306 309 305 304 304 303 302 301 300 302 300 296 298 298 298 298 298 299 302 300 296 296 295 295 294 294 295 296 295 296 296 295 296 298 297 299 299 299 300 301 303 310 308 299 296 299 303 306 307 309 308 304 301 301 302 301 301 302 303 304 306 307 306 302 300 302 303 302 301 302 301 301 300 300 300 299 299 299 299
Wind_Speed
4 5 6 7 9 9 10 10 11 14 16 18 18 16 13 9 6 7 11 12 11 8 5 4 4 6 7 8 8 5 7 12 9 8 13 16 17 14 12 12 9 7 3 5 8 6 6 4 3 0 1 5 8 4 10 11 6 6 2 2 3 3 4 4 2 10 14 12 11 13 15 16 13 16 19 18 22 24 24 23 20 20 21 20 17 16 17 18
5 6 8 9 9 9 9 9 10 12 14 16 15 14 12 10 8 8 11 11 9 6 5 6 6 7 7 9 9 3 6 9 5 9 13 16 17 15 13 11 10 8 2 6 8 5 7 5 1 2 2 7 8 6 10 10 7 6 2 1 2 1 2 5 10 17 19 16 15 17 17 17 14 14 16 13 15 18 20 17 18 22 19 17 17 17 19 18
7 8 9 9 9 8 8 7 8 11 13 13 13 13 13 12 10 9 10 9 7 6 6 7 7 8 6 9 9 3 6 6 5 9 14 17 17 15 12 10 10 8 3 6 8 4 6 4 1 3 3 7 9 10 10 9 7 6 4 2 1 2 6 12 17 20 25 27 21 18 20 19 15 15 17 16 16 17 14 10 13 17 15 15 16 17 20 19
8 8 9 9 9 7 7 6 7 10 11 13 14 13 13 13 11 9 9 7 6 6 6 7 8 9 7 9 9 5 3 3 6 11 16 18 15 13 10 8 9 8 4 3 6 5 5 4 2 5 5 6 10 10 9 10 9 6 3 2 2 6 8 14 21 23 27 30 25 22 21 18 17 17 17 17 14 11 9 10 10 10 12 15 14 16 18 17
8 9 10 9 8 7 6 5 6 9 12 14 14 14 14 14 12 9 7 6 5 5 6 8 8 10 9 7 8 7 3 1 7 15 17 16 11 10 10 8 10 9 4 4 7 6 5 4 3 4 5 5 9 7 7 14 13 6 0 3 6 11 11 16 23 26 27 28 27 23 16 15 21 21 17 17 11 6 6 7 8 9 12 15 14 15 15 15
9 10 10 10 9 7 5 3 4 9 13 14 13 13 14 14 14 10 6 5 4 4 5 7 8 10 11 7 6 8 4 2 11 19 18 13 9 9 10 10 10 7 4 6 7 5 4 2 3 5 5 4 8 6 8 17 14 3 2 5 13 16 15 17 23 24 25 27 23 19 17 21 25 21 22 25 15 8 7 7 10 11 13 15 14 14 13 14
9 10 9 9 8 6 5 2 1 7 12 13 12 13 14 14 14 11 7 4 2 2 3 5 7 8 10 7 4 6 6 7 15 21 20 12 8 9 11 11 10 6 5 6 6 4 5 2 5 6 6 3 8 8 10 17 12 4 5 9 16 20 20 19 23 24 26 28 23 24 23 19 19 14 18 23 14 10 10 9 10 10 13 16 15 15 14 14
9 9 9 9 7 5 5 3 2 5 11 14 13 12 14 14 14 12 7 4 2 1 0 4 6 8 9 7 6 3 8 14 18 21 20 10 7 10 11 10 8 7 5 5 5 5 4 2 4 5 6 3 10 11 13 15 7 5 9 12 16 20 23 23 25 26 28 29 28 31 25 20 21 19 17 15 10 9 10 10 10 10 13 15 16 16 14 13
10 10 10 10 8 5 5 4 4 3 9 13 14 12 13 14 16 14 9 5 4 3 2 2 5 8 7 8 10 4 6 17 18 19 18 8 7 9 10 8 5 6 5 4 4 4 3 3 3 2 5 3 10 11 14 11 5 11 14 17 18 20 23 24 25 24 25 27 32 30 21 20 21 18 15 9 7 8 9 12 10 10 12 13 15 15 14 13
11 11 10 10 9 6 5 5 6 3 5 11 15 15 14 15 17 15 9 6 5 4 4 2 3 7 5 7 10 3 8 17 16 18 15 7 6 7 8 8 3 5 5 3 3 4 3 5 5 3 5 6 6 9 12 8 12 20 22 22 21 20 20 22 22 23 24 22 29 26 14 15 12 8 7 5 6 7 9 13 10 10 11 12 13 13 13 13
12 12 11 11 9 7 5 5 6 5 4 7 14 17 16 18 18 12 7 7 4 3 3 2 3 6 3 5 8 4 11 16 13 16 13 5 6 7 9 8 4 4 4 4 4 3 1 2 2 1 1 3 4 9 12 16 23 25 27 23 19 20 19 20 19 20 19 15 26 30 17 16 14 8 6 4 5 5 8 10 10 10 9 9 10 10 11 12
14 14 13 12 10 7 5 5 5 6 6 5 11 18 18 19 17 6 3 9 7 2 1 1 2 5 1 3 8 8 15 13 11 15 11 5 6 8 10 8 4 3 3 4 4 3 3 4 2 4 4 2 6 7 12 26 28 24 26 18 13 15 13 12 12 14 13 12 23 26 14 11 10 7 5 6 5 5 7 8 9 9 7 7 7 7 10 12
14 14 13 12 11 7 4 4 4 5 6 4 8 17 18 15 13 4 2 6 9 5 1 2 4 4 1 2 6 10 17 12 10 13 8 4 6 6 8 8 6 4 1 2 3 3 5 6 3 5 8 7 4 12 16 26 24 18 18 12 8 9 6 5 5 13 12 14 15 7 5 4 5 6 5 5 4 5 6 6 6 6 5 7 6 6 9 12
14 14 13 13 12 8 4 3 3 4 5 3 3 13 19 13 10 6 4 6 9 7 2 2 1 1 1 3 4 12 18 12 9 11 6 4 5 5 5 6 6 5 1 1 0 2 4 7 4 3 7 8 10 21 17 15 14 11 11 8 5 6 2 7 2 11 8 9 5 5 3 4 3 6 5 4 4 4 6 5 5 5 6 6 7 8 9 12
14 13 13 13 12 8 4 2 3 3 3 1 2 5 17 20 14 9 7 7 7 10 7 1 2 5 2 5 3 14 18 13 11 11 7 4 4 5 5 5 5 4 1 4 4 3 5 6 3 4 5 5 16 18 10 6 7 7 7 5 4 5 4 4 5 4 3 6 4 3 4 4 4 6 4 4 3 5 7 6 6 7 7 6 6 7 8 10
14 14 13 13 12 9 4 2 3 3 5 4 5 5 4 17 21 16 13 10 6 7 12 9 4 6 3 4 6 16 19 16 12 10 9 6 3 5 6 4 3 3 3 5 5 4 5 3 3 7 5 8 13 9 6 6 5 5 4 5 6 6 6 3 5 7 1 5 0 4 7 3 5 6 4 5 3 5 7 6 6 7 7 6 6 5 5 6
15 15 14 12 11 8 5 3 4 4 5 6 7 8 7 7 16 23 19 14 10 6 10 14 4 3 3 8 12 18 18 15 11 10 10 7 4 4 5 3 2 3 5 5 4 4 3 1 3 4 1 5 6 5 7 7 6 5 4 5 7 8 7 5 2 5 2 7 7 10 9 5 7 7 7 5 2 4 6 6 6 5 5 6 6 5 4 4
16 17 16 13 11 9 5 4 5 5 6 7 9 8 7 9 7 21 25 19 16 9 7 13 6 6 3 11 14 15 14 13 12 11 9 5 5 6 4 4 3 4 5 5 4 2 2 1 3 0 2 2 4 5 6 6 8 8 6 7 7 7 7 6 4 3 3 10 10 10 9 7 8 7 7 5 3 4 5 6 5 4 5 5 5 4 4 3
17 18 18 16 12 9 6 4 5 5 7 7 7 7 7 6 4 11 25 25 20 11 5 11 9 2 3 10 14 12 10 14 14 10 6 4 6 6 3 3 3 3 5 4 2 3 3 1 2 2 1 2 1 2 1 1 7 8 7 10 9 8 7 7 6 5 8 11 8 8 8 8 8 6 6 6 5 3 4 5 4 4 4 5 4 3 3 3
16 18 20 20 16 11 7 4 4 4 6 7 7 6 5 4 3 2 14 22 18 12 9 11 10 6 4 8 14 12 8 11 11 7 5 5 6 5 2 2 2 3 4 4 2 3 3 2 1 1 0 3 4 3 2 4 5 8 11 11 10 10 8 7 7 6 7 7 6 9 9 8 7 6 6 7 6 4 5 5 4 4 4 4 4 4 4 4
17 19 20 21 19 14 7 2 3 4 5 6 7 4 4 5 2 3 7 13 12 11 12 13 13 10 8 9 13 13 10 9 11 8 4 5 7 3 1 3 3 2 2 4 5 1 1 2 2 3 2 4 6 4 5 6 3 7 12 11 9 8 7 7 6 6 6 6 6 9 10 8 6 5 6 7 6 5 6 7 6 6 5 4 5 4 5 7
17 19 20 20 19 15 9 1 2 3 5 6 7 6 4 5 1 2 4 6 6 8 9 10 16 15 11 10 12 12 11 10 12 12 9 8 6 3 2 3 1 4 3 2 4 3 1 2 4 5 4 5 5 3 4 2 6 10 11 9 8 7 7 7 6 6 6 6 6 7 8 7 5 4 4 6 6 6 7 7 6 7 7 6 6 6 6 8
18 18 18 19 17 13 8 2 1 2 5 7 8 7 6 3 2 2 1 3 4 7 7 6 15 20 15 11 11 11 11 11 12 14 14 12 8 5 6 4 3 6 2 1 2 3 2 3 5 7 6 4 2 5 6 8 9 8 8 9 8 7 6 5 6 7 6 5 7 8 7 4 3 3 3 5 6 5 5 6 5 6 8 7 7 8 9 8
19 19 19 19 15 9 6 3 3 1 5 6 7 6 6 4 3 3 2 2 3 4 6 9 14 18 18 14 12 10 10 13 13 14 15 14 11 6 6 6 5 4 3 5 8 7 4 4 6 7 2 1 4 9 7 7 8 6 7 10 9 8 7 7 8 9 9 6 7 8 5 2 3 3 2 4 6 5 4 7 8 9 10 9 8 10 11 10
20 21 21 20 13 6 3 3 4 3 3 4 5 5 5 4 3 3 2 1 2 2 4 11 12 15 18 16 14 7 4 11 14 13 14 14 12 5 5 8 5 3 5 10 10 7 5 6 6 2 4 3 3 7 5 2 8 6 6 10 11 11 12 11 10 8 6 4 3 4 3 1 2 4 4 4 5 5 7 10 11 12 13 13 13 13 14 14
21 21 22 22 13 5 3 3 4 3 1 3 4 3 4 3 3 5 3 1 2 3 5 11 11 12 17 17 16 6 2 8 13 13 13 12 12 7 3 4 4 4 5 7 6 3 6 10 8 5 6 4 2 5 5 2 7 5 5 10 12 14 12 10 10 6 4 3 1 2 2 2 1 4 5 5 5 6 8 10 13 14 14 15 15 14 15 17
21 22 22 22 15 6 2 2 2 2 2 3 1 1 4 2 4 6 2 0 3 4 5 10 9 11 17 18 17 5 2 6 9 14 17 11 10 9 4 3 3 3 1 2 4 2 6 9 10 9 7 4 2 3 5 3 5 5 8 11 12 14 11 8 7 6 3 3 2 1 1 1 1 4 5 6 6 6 7 9 13 16 16 16 17 17 17 16
19 22 21 21 16 8 3 2 1 1 2 1 1 0 4 3 5 7 1 2 4 5 3 7 8 13 18 16 17 11 5 7 6 10 17 13 11 11 10 7 7 7 5 4 4 2 5 7 8 8 5 3 1 2 6 2 5 7 10 12 11 12 10 7 7 6 4 4 1 1 1 1 1 3 5 6 5 6 9 9 11 16 19 18 19 19 18 15
18 21 22 21 16 9 4 4 3 2 2 2 1 1 4 4 5 4 1 1 2 4 5 7 7 13 19 14 15 15 11 11 7 7 13 15 13 10 9 10 13 13 12 11 7 2 3 5 5 4 3 3 2 5 6 1 8 9 11 10 8 7 6 6 7 5 5 4 3 1 2 2 0 2 5 5 4 7 9 7 10 17 21 21 20 20 18 15
18 22 22 20 16 11 4 5 5 5 6 7 5 2 3 3 1 1 3 1 1 4 7 7 5 11 17 9 9 13 10 10 11 10 13 16 16 13 9 8 11 10 9 12 9 4 2 4 5 4 4 4 5 3 3 8 10 11 10 8 6 4 3 5 5 4 4 2 1 2 3 3 0 2 5 5 4 6 6 5 8 14 18 20 20 20 17 16
18 22 22 20 17 13 6 5 6 6 8 8 4 1 2 2 2 3 2 1 1 5 6 4 4 9 12 6 5 10 8 7 11 9 10 12 13 14 10 5 6 5 6 8 7 6 5 5 4 3 7 7 3 4 10 11 9 7 7 6 6 4 3 4 3 2 3 1 2 3 2 2 1 2 5 6 5 5 7 4 5 12 18 20 19 18 16 16
17 21 21 19 17 14 8 3 6 6 5 3 2 3 1 2 5 3 2 4 2 3 4 2 4 7 9 6 5 6 4 4 8 6 4 5 5 7 8 4 3 2 5 4 3 6 6 5 5 4 6 12 5 3 7 5 2 2 6 6 5 4 3 3 2 1 1 1 1 1 2 0 1 2 1 5 2 3 5 4 4 4 13 18 17 15 15 16
16 20 19 17 16 15 10 5 5 4 3 3 3 2 3 4 3 1 3 4 1 1 2 3 6 7 8 6 4 5 3 2 7 8 4 4 4 4 7 8 7 2 2 2 1 4 2 1 8 5 4 13 9 4 4 2 2 1 5 4 2 4 4 4 3 2 1 0 1 2 2 0 1 3 4 4 4 6 8 7 5 6 8 11 12 13 15 16
13 18 18 15 14 14 12 9 7 5 3 2 1 3 7 6 1 0 1 2 1 3 2 3 6 7 4 1 1 3 3 1 4 7 6 4 4 4 6 10 11 5 1 2 2 3 2 1 6 5 3 9 7 3 2 1 1 1 2 2 1 1 2 4 3 2 3 1 2 2 1 1 2 2 1 4 5 6 5 2 1 1 2 5 8 10 12 13
11 16 17 14 14 14 13 11 8 7 6 5 5 6 6 3 0 1 1 2 2 3 4 5 5 4 1 2 1 2 2 1 2 5 6 6 5 5 5 6 9 7 2 2 2 1 3 2 2 1 1 4 4 1 1 1 0 1 1 1 0 1 1 3 1 2 4 3 2 1 2 1 2 2 2 4 4 2 1 0 2 3 4 5 6 9 10 11
9 13 16 14 13 13 14 13 10 7 4 3 5 7 3 1 0 1 2 3 2 3 6 5 2 2 3 2 3 4 2 1 3 2 3 4 5 6 5 3 6 7 3 2 2 0 2 2 2 1 0 2 4 2 1 2 2 1 1 1 1 1 3 4 1 1 3 3 1 2 2 1 2 1 2 3 2 2 2 1 2 2 3 4 5 7 8 10
7 10 15 14 11 10 9 11 14 13 9 5 6 5 1 1 2 2 3 4 3 3 4 3 2 4 4 3 4 7 5 3 4 4 2 2 3 6 6 4 6 8 4 2 2 1 2 2 2 3 2 2 3 3 3 0 1 1 1 2 0 2 3 3 2 1 1 2 1 2 1 1 0 0 2 4 4 4 3 3 3 3 4 5 5 5 6 8
6 8 14 14 12 12 8 4 7 12 13 10 7 4 0 1 2 3 4 4 3 3 2 2 2 3 4 3 3 7 7 4 4 4 3 2 3 5 5 4 6 9 8 5 2 2 2 2 2 3 1 1 2 2 2 4 6 5 5 3 2 3 1 1 2 1 1 2 0 1 1 1 1 1 2 3 4 4 4 4 3 2 1 1 1 1 2 3
6 4 11 13 9 13 13 6 5 8 9 7 5 3 1 1 1 2 4 4 3 3 1 1 1 3 4 2 2 5 6 4 5 3 3 2 2 4 6 4 6 11 14 8 2 2 2 2 1 4 1 0 3 5 2 4 7 6 4 1 1 2 2 1 2 1 2 3 2 1 2 1 1 1 1 4 5 5 5 4 4 5 5 4 3 1 1 2
5 2 8 12 6 7 10 11 14 13 8 4 3 1 0 1 1 1 3 3 2 2 2 1 2 3 2 0 1 3 4 4 5 3 2 3 2 2 6 5 5 10 14 8 1 1 3 2 2 3 3 3 2 3 2 2 3 4 4 3 3 2 1 1 1 1 2 2 3 2 1 2 3 4 3 6 5 4 5 4 4 6 5 4 3 2 2 3
5 1 6 12 9 4 4 9 14 11 4 3 3 2 1 0 1 1 3 4 2 2 2 2 3 2 1 0 1 2 3 4 5 4 3 4 3 2 4 7 6 7 9 6 2 3 3 3 3 1 4 3 0 1 2 1 1 1 2 2 1 1 1 2 2 1 1 2 3 4 2 3 4 3 3 5 5 4 5 3 3 4 4 3 4 5 6 6
4 2 4 9 8 6 7 8 9 7 3 3 3 2 1 1 1 2 2 3 3 2 1 2 2 2 2 1 0 2 2 3 4 4 3 2 3 1 4 10 9 6 3 1 1 2 1 3 5 3 2 2 2 1 3 2 2 2 1 1 1 0 2 3 1 2 1 2 1 2 2 3 4 2 2 3 5 4 3 3 2 2 2 3 5 6 6 7
5 4 6 7 5 5 9 7 5 5 4 2 1 2 2 0 1 1 1 2 2 2 1 1 1 2 3 1 1 2 2 2 2 2 2 1 1 1 4 11 10 6 3 0 1 4 2 2 4 2 1 1 1 1 2 2 2 1 1 1 1 0 2 2 2 1 1 2 0 2 2 4 5 1 1 1 3 2 2 1 2 3 3 4 4 5 6 7
6 7 10 12 6 2 5 4 2 3 2 1 2 1 1 1 2 1 1 2 2 2 2 1 1 3 3 2 2 1 0 1 2 1 1 1 0 1 4 10 9 6 4 1 2 5 3 1 2 2 1 3 3 2 2 2 1 1 1 1 1 0 1 2 0 1 1 1 3 4 1 5 3 1 2 2 1 1 2 1 2 3 2 2 4 6 8 8
2 5 10 14 11 6 7 6 6 5 3 3 2 0 1 1 1 2 2 2 3 3 2 1 2 4 3 2 2 2 2 2 2 0 1 1 2 2 3 8 8 5 4 2 3 3 2 2 1 3 3 1 1 2 1 1 0 1 1 1 1 2 2 1 1 1 0 2 3 3 2 3 2 1 3 3 2 2 1 2 2 3 3 4 7 9 9 9
1 2 4 8 12 14 14 11 10 8 4 3 2 1 1 1 0 1 2 1 2 3 3 2 3 3 2 2 2 3 4 5 3 1 1 2 1 2 2 6 8 6 4 4 6 3 3 3 3 3 4 3 2 1 1 2 1 1 1 0 1 2 1 0 1 1 2 2 2 0 0 1 2 2 3 3 3 3 1 4 3 3 3 6 9 9 8 10
0 1 1 2 7 12 12 10 9 8 4 3 2 0 2 2 1 0 2 1 1 2 2 2 2 2 2 3 2 3 3 4 4 3 2 2 1 1 2 4 7 7 5 5 7 2 3 3 3 4 4 1 1 2 4 4 1 1 0 0 1 1 2 3 3 0 1 3 2 3 5 3 0 2 2 2 1 2 5 6 4 4 6 8 9 8 8 11
0 1 2 3 2 3 4 4 6 8 5 3 2 1 2 3 1 1 1 1 1 1 0 1 4 5 3 2 2 2 3 3 4 3 2 3 2 1 1 2 5 8 6 5 6 3 4 2 1 2 2 2 2 2 3 3 2 2 1 1 0 1 2 2 1 2 3 3 3 3 6 3 2 2 5 4 4 4 5 5 5 6 7 8 8 8 9 10
2 4 4 4 4 4 5 6 9 9 6 4 2 1 2 3 2 1 1 0 0 0 0 2 4 4 3 2 1 2 3 2 1 2 3 3 3 2 3 1 3 8 7 4 5 4 3 1 0 2 1 2 1 2 3 3 3 3 2 2 1 0 1 1 1 2 3 2 5 3 5 7 7 6 6 2 4 4 4 5 6 6 6 6 7 8 9 9
1 2 4 7 8 7 8 8 7 5 3 2 2 0 1 2 3 2 1 1 1 1 1 2 3 1 1 3 3 3 2 2 1 1 3 3 2 3 2 0 3 7 7 3 3 3 2 2 1 1 2 1 1 2 3 4 4 2 4 4 2 1 1 1 2 1 1 2 4 1 3 7 6 4 3 1 3 4 4 4 4 4 5 6 8 10 10 9
2 2 4 7 6 4 5 5 2 1 1 0 1 2 1 2 4 5 2 3 2 2 2 3 4 3 2 5 6 4 3 4 4 3 2 3 2 1 1 1 2 5 5 3 2 4 2 3 2 1 2 1 2 3 4 5 4 2 6 7 4 3 1 2 4 4 4 3 1 2 1 5 3 1 2 1 3 4 4 3 3 5 7 8 10 10 9 9
2 4 5 5 3 1 3 3 0 1 1 1 2 2 2 4 7 5 2 2 2 3 3 3 2 1 2 5 4 3 3 3 4 4 4 4 5 4 4 4 4 2 3 3 2 2 2 2 2 2 1 1 2 3 3 4 4 2 6 5 7 7 4 3 3 5 6 5 4 3 3 4 2 2 3 3 3 3 3 4 6 9 11 10 10 8 7 10
Wind_Direction
13 360 353 348 348 351 351 353 355 355 353 347 347 355 360 3 3 357 353 350 346 343 358 25 25 16 21 22 22 37 78 73 54 13 10 9 352 330 325 330 335 325 315 20 7 19 35 22 351 213 171 198 186 197 196 187 193 197 241 213 202 226 231 306 184 138 126 131 136 134 108 103 106 96 101 92 79 77 73 68 76 96 101 104 109 110 102 90
346 337 334 334 338 341 343 346 352 357 351 347 356 8 14 15 10 6 1 1 3 13 34 30 25 29 34 25 18 37 81 81 60 16 8 354 340 323 316 325 338 326 303 16 359 13 11 342 13 34 203 189 185 181 179 183 187 194 232 211 217 258 60 57 110 125 128 135 130 125 112 107 115 114 113 96 70 71 69 59 75 88 91 102 109 109 104 96
333 328 326 327 332 333 337 341 356 360 353 358 13 18 20 17 9 6 7 14 25 38 40 31 34 33 28 21 20 64 95 85 49 11 350 339 332 322 318 324 338 332 326 2 345 346 352 331 79 329 251 197 186 171 174 184 188 205 216 219 214 60 66 90 110 123 131 132 125 119 111 102 103 109 113 104 78 63 57 46 62 73 79 94 100 103 104 107
329 326 325 326 330 331 333 342 5 5 5 17 21 20 18 15 10 4 11 24 35 41 37 38 36 29 26 25 34 55 103 107 38 359 335 334 331 330 331 329 341 333 321 357 346 345 335 320 310 296 268 218 185 172 181 178 172 184 201 267 130 98 80 90 105 115 122 122 116 111 101 89 91 100 114 113 89 63 51 46 57 72 83 87 90 96 102 113
334 330 328 328 331 330 330 344 16 14 20 25 22 23 19 17 15 8 15 26 41 46 41 45 38 32 29 33 46 25 340 155 17 349 336 339 340 348 346 340 342 329 337 24 354 342 317 306 294 266 263 227 173 177 183 172 171 160 143 355 86 98 85 83 99 108 112 111 105 99 92 95 94 81 86 96 86 78 64 63 86 98 95 87 84 88 97 112
338 333 329 326 328 325 322 336 26 25 28 25 22 26 23 19 17 15 19 19 43 51 48 48 36 30 25 40 56 14 1 53 359 348 347 351 353 359 349 341 338 336 22 7 346 332 322 312 262 231 244 230 169 192 173 172 188 168 46 57 84 92 93 89 94 102 107 103 95 94 103 107 96 73 72 80 74 85 93 97 106 106 103 94 88 89 95 104
340 334 329 325 324 315 310 288 34 28 28 23 19 21 22 19 16 14 13 10 29 36 45 35 23 19 17 38 51 21 45 27 355 350 351 356 0 358 354 352 351 14 36 353 353 346 340 291 249 221 237 233 169 199 166 169 199 169 93 84 91 92 97 98 96 98 98 95 95 103 103 95 90 85 79 76 71 86 101 106 106 111 110 104 100 96 96 99
342 335 330 325 325 311 298 255 232 23 26 19 13 11 9 7 7 5 357 350 329 276 344 9 9 358 4 21 351 352 44 8 349 349 350 354 358 359 8 5 356 17 22 350 1 353 343 273 253 227 250 216 177 196 160 162 194 144 116 102 99 94 95 96 94 96 94 96 103 100 88 80 92 98 80 69 78 90 104 105 99 109 111 111 111 104 98 96
344 336 331 326 329 317 293 258 238 1 21 14 10 6 0 354 353 353 341 325 300 247 254 330 356 345 4 13 335 311 21 356 343 344 348 351 356 8 13 355 345 9 359 351 4 340 322 305 302 293 317 274 205 184 157 168 145 115 115 105 100 95 97 97 95 97 97 102 105 96 88 93 99 97 73 57 91 101 114 108 98 109 110 109 113 113 106 102
351 344 337 329 332 321 299 272 246 276 359 8 9 4 358 349 345 343 336 320 297 248 252 273 337 342 11 4 342 347 356 346 338 340 346 348 358 18 5 344 15 32 353 354 351 322 334 343 340 352 341 293 232 160 163 165 111 115 112 104 103 99 100 101 100 103 101 102 104 99 91 81 80 95 77 49 88 110 121 108 101 110 113 111 112 113 110 112
359 355 347 337 333 323 301 282 256 258 291 351 7 3 354 344 339 339 354 356 330 249 252 241 313 340 20 14 19 24 342 343 336 338 346 348 3 13 360 356 32 31 5 6 327 296 317 360 324 304 311 259 168 141 154 128 115 121 112 101 103 102 102 103 106 111 104 99 105 102 84 52 51 74 90 87 91 109 117 104 101 104 106 111 113 117 118 122
4 358 350 341 335 323 301 284 264 256 271 323 6 6 354 340 339 336 22 27 28 22 302 186 14 4 51 62 49 6 341 350 340 338 346 359 15 3 354 2 13 4 22 18 335 272 211 174 205 299 305 243 146 134 131 123 122 119 108 103 106 101 96 92 104 115 107 124 121 106 83 38 39 68 90 107 105 103 102 94 97 96 97 102 99 115 126 131
2 358 352 345 339 327 299 280 264 250 271 305 8 13 5 346 350 353 251 2 15 8 344 135 79 28 337 57 50 359 348 355 343 339 345 15 21 352 346 0 359 349 17 10 338 242 203 171 194 300 300 288 143 124 123 126 127 116 106 113 113 95 68 15 97 122 116 144 144 100 78 54 47 87 96 109 120 114 101 90 91 90 111 120 112 116 123 132
1 2 358 351 346 333 305 280 261 241 266 295 18 23 26 20 11 10 297 322 9 24 360 196 119 331 323 61 33 347 351 356 350 346 351 30 17 340 343 356 342 326 312 65 98 194 162 164 196 299 289 275 132 124 128 131 133 124 114 120 120 110 92 336 49 131 132 156 178 334 97 125 89 105 102 116 129 123 115 105 105 101 110 116 117 126 128 134
1 5 3 357 351 338 320 280 265 236 236 216 130 47 40 41 39 31 4 354 23 37 27 283 239 283 297 87 23 336 352 4 356 356 6 16 11 351 343 339 330 328 18 105 113 135 143 157 206 285 272 197 137 132 140 143 144 144 129 134 139 119 127 356 24 95 133 172 234 340 103 114 119 124 117 130 127 123 124 119 126 118 109 105 101 113 122 128
0 4 3 358 352 341 324 293 273 226 208 193 178 197 30 34 42 47 34 20 15 18 17 6 311 286 315 58 356 339 357 6 353 3 8 353 17 9 349 340 337 3 62 101 111 123 139 150 279 279 256 157 147 151 149 142 151 174 166 148 139 121 132 111 25 346 290 167 139 83 120 114 120 135 131 135 127 123 128 124 130 122 111 115 113 110 106 114
356 358 1 0 355 342 317 295 272 231 210 205 205 219 250 336 30 46 46 38 30 7 4 8 357 186 41 16 352 345 356 2 1 19 8 349 38 23 7 27 25 75 89 96 99 103 122 196 270 280 257 150 170 165 152 161 162 180 178 130 120 121 132 128 70 308 226 126 74 80 107 104 115 132 134 144 140 128 136 128 131 126 119 125 123 125 123 124
353 353 358 3 1 347 322 292 270 240 211 208 218 230 254 277 353 39 42 42 41 34 2 15 48 149 49 7 356 345 353 14 19 19 7 5 57 35 32 75 81 101 118 109 96 127 140 209 224 13 34 200 211 178 169 169 159 176 169 125 113 116 126 120 125 232 140 100 88 87 94 101 114 126 134 149 156 145 141 131 133 131 135 143 130 131 144 158
353 353 355 357 360 356 332 292 270 243 217 213 220 229 250 262 269 35 37 40 48 55 26 19 34 68 324 349 356 348 0 25 19 11 28 62 61 40 41 114 108 142 169 143 108 192 172 196 218 134 169 224 208 155 194 178 172 176 137 118 124 119 117 114 123 157 118 96 93 100 105 119 121 127 142 155 175 175 143 136 149 148 153 160 150 156 162 183
352 352 352 349 349 353 340 295 258 245 225 216 214 221 239 247 213 87 42 46 59 75 65 42 33 17 345 349 5 11 21 33 24 17 49 52 34 36 71 155 179 199 185 137 135 220 205 157 101 88 235 309 343 353 321 296 230 169 120 111 120 115 113 123 124 120 108 90 82 100 110 118 119 133 151 162 181 184 161 167 178 175 178 172 172 181 182 213
348 347 347 344 341 347 351 306 248 253 235 218 212 207 245 267 239 140 72 60 66 75 72 55 36 18 4 2 9 18 24 30 31 25 13 2 359 4 165 206 204 175 102 103 116 113 276 120 38 360 342 303 297 294 300 299 261 129 116 111 107 106 110 113 103 85 84 86 97 108 104 102 114 135 153 166 183 191 184 188 190 193 200 192 195 195 197 225
346 344 343 341 337 343 353 344 237 256 232 210 201 199 243 273 251 126 98 90 72 61 74 55 35 25 13 14 16 18 19 15 24 23 8 0 1 358 320 275 201 103 83 104 114 95 60 67 5 339 335 299 283 311 332 8 95 105 110 110 104 111 110 94 91 95 89 96 114 113 98 98 114 126 156 181 191 190 188 200 201 197 203 205 210 210 212 231
350 348 346 342 337 343 354 32 54 271 212 200 201 207 225 225 189 250 303 132 108 62 73 53 31 26 19 19 19 23 29 20 15 14 8 9 12 10 344 324 105 103 111 181 119 118 87 43 338 314 321 317 1 49 58 80 87 99 111 112 118 131 120 104 120 114 87 96 125 116 96 95 115 121 182 205 212 203 196 220 228 212 203 201 210 215 214 226
356 358 357 349 343 347 1 41 44 98 180 202 211 214 220 213 215 253 288 110 110 75 63 41 27 23 18 14 13 21 34 30 21 8 6 9 8 9 2 13 72 92 83 86 87 87 67 26 317 299 317 67 79 74 68 86 91 87 103 115 131 133 113 110 122 108 81 89 123 113 92 89 141 165 210 215 225 240 231 227 237 237 223 216 217 215 212 214
1 2 4 360 356 3 29 54 48 80 157 200 204 212 213 209 217 197 182 137 63 54 31 22 16 16 12 8 7 358 11 29 26 10 5 12 13 13 22 29 49 63 71 80 81 80 40 6 335 322 105 66 75 82 24 55 108 91 105 123 131 124 113 119 124 109 91 113 142 101 97 150 164 193 200 188 208 232 231 222 229 237 233 234 235 231 232 228
3 1 3 5 8 27 62 55 42 42 83 167 178 209 194 190 208 181 175 211 36 27 10 3 358 10 9 5 2 336 239 25 25 21 18 21 17 5 351 32 76 74 73 79 79 80 358 1 10 42 78 27 49 96 358 357 111 102 127 129 122 118 122 138 131 107 100 131 109 40 93 121 149 215 206 182 195 217 220 217 223 229 229 232 238 239 240 238
3 3 3 4 11 34 66 51 40 16 55 134 143 231 190 202 198 181 177 122 27 13 12 359 355 12 9 9 15 16 196 350 6 30 29 24 21 30 47 49 79 57 26 107 75 40 334 1 24 30 43 27 66 94 335 324 104 106 130 130 125 127 140 153 122 96 102 103 53 318 166 113 187 204 189 184 200 214 214 217 219 222 225 227 234 238 235 236
3 5 4 3 9 28 57 66 74 342 49 110 3 334 180 163 158 169 149 55 24 358 359 357 8 17 8 19 38 50 55 359 354 29 29 34 41 55 68 62 73 59 38 94 97 24 349 12 22 21 34 39 56 252 285 302 103 121 136 134 136 142 150 138 101 101 124 117 106 257 204 87 155 158 162 181 206 225 221 218 211 212 220 224 230 234 235 236
3 4 6 4 6 21 58 86 81 85 86 100 81 188 176 154 161 169 38 45 26 349 343 355 7 3 358 16 40 38 41 30 27 36 35 44 50 63 77 68 78 72 56 74 94 82 43 37 22 23 42 22 322 268 266 85 103 136 146 133 135 144 142 116 105 121 129 132 142 64 53 73 116 163 156 170 212 233 225 217 210 211 215 219 224 231 236 236
5 4 6 5 8 17 53 114 107 107 109 109 108 127 158 155 189 77 35 11 64 349 338 359 3 340 345 5 27 17 29 34 26 35 45 48 49 54 63 64 69 76 73 71 75 85 80 53 43 39 25 327 292 327 72 103 115 139 141 127 130 133 121 105 105 123 115 129 185 19 52 81 46 209 177 180 210 216 208 205 209 210 211 213 220 230 236 234
8 7 6 6 11 14 31 116 133 132 122 119 115 68 133 117 26 67 59 312 11 356 342 356 353 338 342 355 14 3 14 31 19 25 43 47 47 36 29 34 36 54 77 63 64 62 39 41 37 355 7 354 304 60 75 98 114 132 138 133 132 121 102 94 96 142 120 157 261 342 23 79 76 231 204 200 200 186 190 207 210 205 205 205 210 221 228 234
10 9 6 8 13 15 21 92 153 169 170 180 273 303 153 70 30 50 326 317 326 2 360 323 329 336 326 332 10 358 347 18 15 18 40 42 51 42 41 42 351 34 70 51 64 47 34 40 13 310 357 8 3 104 74 72 73 132 149 142 128 127 130 120 140 173 102 175 228 348 360 17 241 295 176 163 153 133 141 91 52 160 183 187 199 215 225 233
10 10 9 12 17 21 30 73 123 156 206 237 276 326 59 65 40 12 317 341 334 310 330 291 309 315 303 318 5 350 333 4 9 13 22 26 48 65 60 39 8 3 73 61 96 34 31 45 5 351 352 4 13 106 98 61 16 104 149 146 137 140 142 148 154 129 73 306 303 339 347 348 257 334 32 89 67 62 86 83 67 84 124 157 186 210 224 232
9 11 12 20 27 31 42 66 80 80 89 85 63 48 54 61 56 311 328 342 288 269 298 310 311 306 295 355 31 339 360 61 27 26 23 29 43 23 20 22 12 1 10 70 91 36 61 106 3 6 332 351 18 87 134 133 348 288 163 137 107 134 126 142 148 107 111 126 357 339 326 113 178 254 54 95 89 77 77 86 152 126 122 157 180 196 208 220
10 11 16 28 36 40 48 57 58 56 59 57 63 64 58 63 286 352 342 310 293 289 308 317 313 306 346 86 66 13 39 38 38 56 43 44 56 17 355 357 360 359 348 58 98 82 74 69 351 17 275 333 20 69 181 136 277 251 185 94 110 252 128 117 122 119 127 119 56 320 264 97 132 191 151 108 94 104 123 267 255 257 250 231 222 216 209 212
11 15 22 29 37 49 56 55 49 36 8 1 62 65 58 74 34 359 349 337 336 322 314 308 305 338 7 41 21 6 19 342 337 27 61 71 74 30 4 333 359 19 22 31 45 94 91 62 325 348 103 8 32 355 258 146 206 260 40 53 239 209 124 109 52 42 114 115 111 255 268 53 84 109 178 156 148 155 154 210 257 253 239 237 249 247 237 234
12 24 26 25 31 41 54 61 59 55 46 48 75 74 62 64 27 350 355 344 312 298 315 340 7 348 352 20 14 352 343 331 344 2 37 72 48 14 359 334 1 30 39 31 42 19 96 92 358 22 42 1 25 338 299 358 148 175 129 178 224 51 94 110 82 17 61 100 210 241 226 202 127 312 236 190 168 155 153 170 193 198 208 225 248 258 257 254
7 23 23 18 21 25 27 55 66 63 60 62 83 98 152 12 10 346 346 334 290 270 314 36 24 5 8 8 359 350 349 346 346 6 36 28 1 5 5 332 342 9 5 348 9 360 27 76 7 9 55 292 360 6 319 7 40 85 137 160 100 82 74 84 110 138 132 117 196 286 313 272 205 200 216 176 141 124 127 132 132 129 158 209 249 244 246 262
7 27 19 7 14 34 39 65 99 81 67 61 81 96 20 356 10 351 347 333 269 275 349 76 29 28 30 10 341 347 357 11 353 356 37 15 356 22 25 354 321 342 345 339 12 338 317 99 14 306 297 300 8 30 19 346 11 54 92 71 49 109 137 136 126 138 131 132 144 79 355 318 273 306 64 97 82 74 80 75 67 59 54 48 39 77 159 230
21 59 17 8 21 48 49 72 77 71 66 54 59 75 353 15 12 327 346 337 266 285 8 21 353 29 31 329 35 350 358 22 9 18 42 359 357 51 31 18 326 326 332 327 31 349 314 89 101 294 337 36 13 17 30 327 344 12 22 20 10 6 57 115 64 77 112 132 140 119 113 263 294 331 44 84 76 72 77 67 64 62 57 51 22 357 339 311
31 64 19 26 42 47 54 67 55 49 68 79 66 84 187 317 338 312 327 328 311 335 1 337 350 36 60 77 49 358 7 27 16 34 50 12 19 42 15 11 342 318 328 326 350 21 3 54 87 4 7 35 189 309 8 359 319 351 29 61 56 342 33 56 14 351 85 97 148 139 147 255 279 329 41 92 102 94 88 81 65 50 47 40 5 351 347 340
41 38 7 23 32 41 72 72 37 28 77 85 60 67 115 204 323 331 318 316 303 293 308 325 347 27 50 69 318 334 20 39 18 26 44 30 33 3 337 349 337 309 315 349 3 351 359 67 72 65 34 77 145 87 25 10 324 309 319 210 215 12 80 89 147 253 356 38 190 140 112 261 268 326 23 102 118 110 110 110 78 19 9 360 344 338 335 335
61 51 14 8 14 53 77 79 40 37 59 60 58 67 83 199 298 320 329 335 306 273 316 345 298 12 34 22 285 342 25 38 27 48 91 64 38 225 330 349 349 333 323 286 348 346 360 74 72 81 46 50 127 359 6 18 27 7 300 321 35 159 157 138 170 211 51 40 323 73 61 269 257 260 293 163 124 110 126 91 14 339 335 341 340 338 341 347
57 55 37 24 20 69 82 83 98 87 84 97 83 65 65 326 328 346 3 358 346 313 337 8 344 360 4 331 314 331 317 52 42 48 142 75 265 208 2 8 16 18 18 48 324 344 7 60 76 102 78 4 352 325 326 348 41 65 78 86 36 330 140 120 116 79 70 163 143 112 165 263 246 191 236 216 147 160 174 134 357 350 351 346 350 349 349 356
28 51 43 37 44 82 93 103 125 123 133 141 119 120 145 87 10 18 19 10 17 356 346 20 355 347 343 329 343 354 358 39 57 252 219 115 148 162 36 27 35 40 47 51 343 350 52 54 45 117 146 152 167 189 204 278 276 62 69 105 28 29 87 119 110 93 147 208 144 128 202 252 293 304 248 221 205 226 162 102 12 6 25 6 351 348 350 358
26 61 44 42 55 76 88 103 118 120 140 156 124 71 91 97 81 38 24 17 48 30 29 32 335 323 327 336 1 27 14 14 35 69 40 20 96 133 46 35 41 42 56 39 8 21 103 64 42 90 128 158 170 185 286 323 274 175 207 174 103 82 106 93 86 130 202 167 147 281 318 302 291 239 227 226 208 214 40 53 44 30 21 348 338 339 345 352
71 65 68 61 64 73 82 93 105 114 149 166 134 133 109 107 155 116 27 21 75 43 40 53 21 7 351 337 3 37 14 2 19 41 23 343 350 110 64 44 33 23 30 27 7 24 118 62 26 63 72 52 345 346 322 327 2 139 162 106 109 77 26 44 77 116 38 110 169 323 13 19 102 99 44 347 43 48 31 39 34 359 344 336 336 340 343 343
297 142 118 109 95 86 83 95 109 105 100 110 117 149 130 129 165 111 54 50 87 31 12 68 42 34 24 350 348 25 17 12 18 17 354 350 341 313 11 45 32 20 18 12 9 45 108 67 344 74 42 322 310 327 312 325 360 348 337 340 334 67 67 72 81 4 45 120 206 328 5 328 259 351 352 2 40 31 20 15 347 335 338 334 332 331 332 331
91 122 117 102 99 105 106 121 125 108 90 100 114 125 153 148 138 66 32 357 106 350 10 60 36 27 20 345 335 45 34 23 26 14 5 359 335 337 11 32 13 15 21 17 8 32 97 93 153 130 75 322 323 353 354 16 10 327 307 304 289 172 132 208 256 39 70 196 243 291 318 287 263 267 283 330 33 9 357 349 338 337 335 322 316 318 322 320
114 132 135 109 92 92 104 122 133 118 104 129 118 112 186 137 136 139 20 25 95 317 351 96 106 112 35 32 55 76 49 21 61 30 4 357 334 350 33 78 318 346 6 27 354 350 78 118 181 136 89 359 345 41 41 44 53 360 312 312 316 7 8 275 247 168 121 265 268 239 283 284 267 242 244 324 1 345 340 338 332 329 319 307 306 310 311 310
268 234 158 121 97 90 115 132 149 111 112 170 128 168 194 122 138 138 74 29 57 34 24 108 142 167 91 66 68 77 52 46 79 85 56 63 71 63 70 48 339 331 347 18 346 338 44 120 166 108 93 310 332 51 42 27 44 2 293 279 223 190 223 217 211 193 175 178 119 85 285 266 254 30 31 316 287 297 299 306 319 315 307 299 297 298 301 310
249 195 169 129 95 141 153 152 162 101 121 46 97 134 125 119 132 130 93 45 65 71 60 67 84 205 104 81 81 108 96 88 112 107 89 94 96 97 85 51 36 5 344 351 348 1 49 113 144 98 118 253 322 22 23 8 17 321 274 245 190 185 203 208 210 210 200 176 138 150 223 223 214 15 1 290 279 302 309 310 307 301 297 293 290 292 306 320